Weather History for KGNT - September, 2013

Change the Weather History Date:

Sunday, September 29, 2013

  Actual Average Record
Temperature  
Mean Temperature 50 °F -  
Max Temperature 73 °F 77 °F 88 °F (2010)
Min Temperature 27 °F 39 °F 26 °F (1974)
Degree Days  
Heating Degree Days 15    
Moisture  
Dew Point 26 °F    
Average Humidity 48    
Maximum Humidity 92    
Minimum Humidity 15    
Precipitation  
Precipitation 0.00 in - - ()
Sea Level Pressure  
Sea Level Pressure 30.30 in    
Wind  
Wind Speed 6 mph (NW)    
Max Wind Speed 13 mph    
Max Gust Speed 18 mph    
Visibility 10 miles    
Events      
Averages and records for this station are not official NWS values.
T = Trace of Precipitation, MM = Missing Value Source: NWS Daily Summary

Daily Weather History Graph

Daily Weather History Graph

Search for Another Location

Airport or City:

Trip Planner

Search our weather history database for the weather conditions in past years. The results will help you decide how hot, cold, wet, or windy it might be!

Date:

Astronomy

Sep. 29, 2013 Rise Set
Actual Time 7:05 AM MDT 6:57 PM MDT
Civil Twilight 6:39 AM MDT 7:23 PM MDT
Nautical Twilight 6:10 AM MDT 7:52 PM MDT
Astronomical Twilight 5:40 AM MDT 8:22 PM MDT
Moon 1:59 AM MDT (9/29) 3:46 PM MDT (9/29)
Length of Visible Light 12h 43m
Length of Day
11h 52m
Waning Crescent, 26% of the Moon is Illuminated
Sep 29
Waning Crescent
Oct 4
New
Oct 11
First Quarter
Oct 18
Full
Oct 26
Last Quarter

Hourly Weather History & Observations

Time (MDT) Temp. Windchill Dew Point Humidity Pressure Visibility Wind Dir Wind Speed Gust Speed Precip Events Conditions
12:15 AM 35.6 °F 31.7 °F 26.6 °F 70% 30.35 in 10.0 mi NNW 4.6 mph - N/A   Clear
12:35 AM 33.1 °F 28.7 °F 27.3 °F 79% 30.35 in 10.0 mi NW 4.6 mph - N/A   Clear
12:55 AM 34.7 °F - 27.0 °F 73% 30.34 in 10.0 mi Calm Calm - N/A   Clear
1:15 AM 33.3 °F 28.9 °F 26.4 °F 76% 30.35 in 10.0 mi NNW 4.6 mph - N/A   Clear
1:35 AM 31.8 °F 27.3 °F 27.0 °F 82% 30.34 in 10.0 mi NW 4.6 mph - N/A   Clear
1:55 AM 32.0 °F 26.4 °F 26.4 °F 80% 30.35 in 10.0 mi NW 5.8 mph - N/A   Clear
2:15 AM 31.8 °F 25.4 °F 27.5 °F 84% 30.36 in 10.0 mi NW 6.9 mph - N/A   Clear
2:35 AM 32.7 °F 28.3 °F 28.4 °F 84% 30.35 in 10.0 mi WNW 4.6 mph - N/A   Clear
2:55 AM 32.2 °F - 27.3 °F 82% 30.35 in 10.0 mi Calm Calm - N/A   Clear
3:15 AM 31.3 °F 27.9 °F 26.4 °F 82% 30.34 in 10.0 mi NNW 3.5 mph - N/A   Clear
3:35 AM 30.0 °F 23.2 °F 26.4 °F 86% 30.34 in 10.0 mi NW 6.9 mph - N/A   Clear
3:55 AM 31.6 °F 25.1 °F 26.8 °F 82% 30.34 in 10.0 mi WNW 6.9 mph - N/A   Clear
4:15 AM 32.0 °F 27.5 °F 26.6 °F 80% 30.34 in 10.0 mi NW 4.6 mph - N/A   Clear
4:35 AM 30.7 °F 26.0 °F 26.4 °F 84% 30.34 in 10.0 mi NW 4.6 mph - N/A   Clear
4:55 AM 29.8 °F 22.2 °F 26.4 °F 87% 30.34 in 10.0 mi NW 8.1 mph - N/A   Clear
5:15 AM 30.7 °F 24.1 °F 26.6 °F 85% 30.35 in 10.0 mi WNW 6.9 mph - N/A   Clear
5:35 AM 30.4 °F 22.9 °F 26.6 °F 86% 30.35 in 10.0 mi NW 8.1 mph - N/A   Clear
5:55 AM 30.9 °F 23.5 °F 26.6 °F 84% 30.36 in 10.0 mi WNW 8.1 mph - N/A   Clear
6:15 AM 29.5 °F 24.5 °F 25.5 °F 85% 30.36 in 10.0 mi NW 4.6 mph - N/A   Clear
6:35 AM 28.4 °F 21.2 °F 25.5 °F 89% 30.36 in 10.0 mi NW 6.9 mph - N/A   Clear
6:55 AM 29.1 °F 24.1 °F 25.5 °F 86% 30.36 in 10.0 mi NW 4.6 mph - N/A   Clear
7:15 AM 27.3 °F 20.9 °F 25.2 °F 92% 30.36 in 10.0 mi NW 5.8 mph - N/A   Clear
7:35 AM 29.1 °F 23.0 °F 26.2 °F 89% 30.36 in 10.0 mi NW 5.8 mph - N/A   Clear
7:55 AM 31.3 °F 25.6 °F 27.7 °F 87% 30.37 in 10.0 mi NW 5.8 mph - N/A   Clear
8:15 AM 33.4 °F 28.1 °F 28.8 °F 83% 30.37 in 10.0 mi NW 5.8 mph - N/A   Clear
8:35 AM 36.5 °F 31.8 °F 29.8 °F 77% 30.37 in 10.0 mi NW 5.8 mph - N/A   Clear
8:55 AM 39.4 °F 34.5 °F 29.3 °F 67% 30.37 in 10.0 mi NNW 6.9 mph - N/A   Clear
9:15 AM 42.6 °F 39.0 °F 28.8 °F 58% 30.37 in 10.0 mi NNW 5.8 mph - N/A   Clear
9:35 AM 45.9 °F 41.7 °F 29.7 °F 53% 30.37 in 10.0 mi NNW 8.1 mph - N/A   Clear
9:55 AM 48.2 °F - 29.5 °F 48% 30.37 in 10.0 mi NNW 6.9 mph - N/A   Clear
10:15 AM 50.7 °F - 29.1 °F 43% 30.36 in 10.0 mi NNW 5.8 mph - N/A   Clear
10:35 AM 52.9 °F - 27.7 °F 38% 30.36 in 10.0 mi NW 5.8 mph - N/A   Clear
10:55 AM 56.1 °F - 29.1 °F 36% 30.35 in 10.0 mi NNW 5.8 mph - N/A   Clear
11:15 AM 59.4 °F - 27.3 °F 29% 30.34 in 10.0 mi NNW 6.9 mph - N/A   Clear
11:35 AM 61.5 °F - 27.0 °F 27% 30.34 in 10.0 mi NNW 5.8 mph - N/A   Clear
11:55 AM 64.0 °F - 25.7 °F 23% 30.34 in 10.0 mi North 9.2 mph - N/A   Clear
12:15 PM 66.2 °F - 25.3 °F 21% 30.33 in 10.0 mi NNW 6.9 mph - N/A   Clear
12:35 PM 66.4 °F - 24.3 °F 20% 30.32 in 10.0 mi NNW 8.1 mph - N/A   Clear
12:55 PM 68.2 °F - 26.1 °F 21% 30.31 in 10.0 mi NNW 8.1 mph - N/A   Clear
1:15 PM 69.4 °F - 24.1 °F 18% 30.29 in 10.0 mi North 5.8 mph - N/A   Clear
1:35 PM 69.3 °F - 24.4 °F 19% 30.29 in 10.0 mi NNE 4.6 mph - N/A   Clear
1:55 PM 69.8 °F - 25.0 °F 19% 30.27 in 10.0 mi NNW 6.9 mph - N/A   Clear
2:15 PM 70.2 °F - 23.5 °F 17% 30.26 in 10.0 mi NE 5.8 mph - N/A   Clear
2:35 PM 70.9 °F - 23.0 °F 17% 30.24 in 10.0 mi ENE 5.8 mph - N/A   Clear
2:55 PM 72.3 °F - 25.0 °F 17% 30.23 in 10.0 mi North 3.5 mph - N/A   Clear
3:15 PM 72.9 °F - 25.9 °F 17% 30.23 in 10.0 mi NNW 8.1 mph - N/A   Clear
3:35 PM 72.9 °F - 23.7 °F 16% 30.22 in 10.0 mi NNW 3.5 mph - N/A   Clear
3:55 PM 73.2 °F - 22.5 °F 15% 30.22 in 10.0 mi NW 11.5 mph - N/A   Clear
4:15 PM 73.4 °F - 23.7 °F 16% 30.21 in 10.0 mi NNW 9.2 mph - N/A   Clear
4:35 PM 73.4 °F - 22.1 °F 15% 30.21 in 10.0 mi WNW 11.5 mph 17.3 mph N/A   Clear
4:55 PM 72.9 °F - 24.1 °F 16% 30.21 in 10.0 mi NW 8.1 mph - N/A   Clear
5:15 PM 72.5 °F - 23.2 °F 16% 30.21 in 10.0 mi WNW 9.2 mph 18.4 mph N/A   Clear
5:35 PM 71.8 °F - 22.3 °F 16% 30.21 in 10.0 mi WNW 12.7 mph 16.1 mph N/A   Clear
5:55 PM 70.7 °F - 21.2 °F 15% 30.21 in 10.0 mi WNW 12.7 mph - N/A   Clear
6:15 PM 69.3 °F - 22.8 °F 17% 30.21 in 10.0 mi WNW 9.2 mph - N/A   Clear
6:35 PM 66.9 °F - 23.4 °F 19% 30.21 in 10.0 mi West 8.1 mph - N/A   Clear
6:55 PM 61.9 °F - 25.3 °F 25% 30.21 in 10.0 mi West 5.8 mph - N/A   Clear
7:15 PM 56.7 °F - 25.7 °F 30% 30.22 in 10.0 mi West 6.9 mph - N/A   Clear
7:35 PM 55.2 °F - 26.4 °F 33% 30.22 in 10.0 mi WSW 8.1 mph - N/A   Clear
7:55 PM 54.5 °F - 26.4 °F 34% 30.23 in 10.0 mi West 5.8 mph - N/A   Clear
8:15 PM 54.0 °F - 25.7 °F 34% 30.23 in 10.0 mi WSW 4.6 mph - N/A   Clear
8:35 PM 54.9 °F - 24.3 °F 31% 30.24 in 10.0 mi WSW 6.9 mph - N/A   Clear
8:55 PM 57.0 °F - 22.6 °F 26% 30.24 in 10.0 mi West 9.2 mph - N/A   Clear
9:15 PM 57.2 °F - 22.1 °F 26% 30.24 in 10.0 mi West 9.2 mph - N/A   Clear
9:35 PM 52.2 °F - 24.8 °F 35% 30.24 in 10.0 mi Calm Calm - N/A   Clear
9:55 PM 55.2 °F - 22.5 °F 28% 30.26 in 10.0 mi Calm Calm - N/A   Clear
10:15 PM 53.1 °F - 23.0 °F 31% 30.26 in 10.0 mi Calm Calm - N/A   Clear
10:35 PM 47.8 °F - 25.3 °F 41% 30.26 in 10.0 mi Calm Calm - N/A   Clear
10:55 PM 49.6 °F - 25.0 °F 38% 30.26 in 10.0 mi WNW 4.6 mph - N/A   Clear
11:15 PM 46.9 °F - 26.1 °F 44% 30.26 in 10.0 mi WNW 3.5 mph - N/A   Clear
11:35 PM 40.6 °F 36.7 °F 27.1 °F 59% 30.25 in 10.0 mi WNW 5.8 mph - N/A   Clear
11:55 PM 43.2 °F 40.5 °F 26.1 °F 51% 30.25 in 10.0 mi NW 4.6 mph - N/A   Clear